SCP
0 0 0 0 0 1 2 2 3 2 1 1 0 0 0 0 0 0 0 0 0 0 0 0 0 0 0 0 0 0 0 0
0 0 0 0 0 0 1 2 3 2 2 1 0 0 0 0 0 0 0 0 0 0 0 0 0 0 0 0 0 0 0 0
0 0 0 0 0 -0 1 1 3 3 3 2 1 1 0 0 0 0 0 0 0 0 0 0 0 0 0 0 0 0 0 0
0 0 -0 0 0 0 0 1 2 3 3 2 2 1 0 0 0 0 0 0 0 0 0 0 0 0 0 0 0 0 0 0
0 0 0 0 0 0 0 1 1 2 2 2 2 1 1 0 0 0 0 0 0 0 0 0 0 0 0 0 0 0 0 0
0 0 0 0 0 0 0 0 2 2 2 2 2 1 1 1 1 0 0 0 0 0 0 0 0 0 0 0 0 0 0 0
0 0 0 0 0 0 0 -0 1 2 2 2 2 2 1 1 1 0 0 0 0 0 0 0 1 0 0 0 0 0 0 0
0 0 0 0 0 0 0 0 0 1 3 4 2 2 1 1 1 1 0 0 0 0 0 1 1 0 1 0 0 0 0 0
0 0 0 0 0 0 0 0 0 2 3 4 3 3 2 2 1 1 0 0 0 1 0 1 1 0 0 1 0 0 0 0
0 0 0 0 0 0 0 0 0 2 4 4 3 3 2 2 1 1 1 0 0 1 1 1 1 1 1 0 0 0 0 0
0 0 0 0 0 0 0 0 1 2 2 4 6 5 3 2 2 1 1 0 0 1 1 1 1 1 1 0 0 0 0 0
0 0 0 0 0 0 0 0 1 2 2 5 4 4 3 1 3 1 1 1 1 2 2 2 2 1 1 0 0 0 0 0
0 0 0 0 0 0 0 0 -0 2 2 4 4 3 3 3 2 4 2 3 2 2 2 1 1 0 0 0 0 0 0 0
0 0 0 0 0 0 0 0 -0 2 2 3 4 4 4 4 4 6 4 5 2 2 1 0 0 0 0 0 0 0 0 0
0 0 0 0 0 0 0 0 0 1 2 2 3 7 5 5 5 4 2 1 1 0 0 0 0 0 0 0 0 0 0 0
0 0 0 0 0 0 0 0 0 1 1 2 4 4 5 3 3 2 0 1 0 0 0 0 0 0 0 0 0 0 0 0
0 0 0 0 0 0 0 0 0 1 1 2 2 5 3 4 4 2 2 2 0 0 0 0 0 0 0 0 0 0 0 0
0 0 0 0 0 0 0 0 0 0 1 1 1 3 5 5 3 1 0 0 0 0 0 0 0 0 0 0 0 0 0 0
0 0 0 0 0 0 0 0 0 0 1 1 1 2 4 3 2 0 0 0 0 0 0 0 0 0 0 0 0 0 0 0
0 0 0 0 0 0 0 0 0 1 1 1 1 3 2 3 1 0 0 0 0 0 0 0 0 0 0 0 0 0 0 0
Wind_Speed_500mb
18 15 9 7 13 28 42 49 50 45 41 41 37 35 33 32 31 32 26 26 27 26 20 22 20 20 10 14 13 12 14 12
22 19 14 12 14 25 40 43 51 44 43 41 38 36 34 32 32 35 29 28 25 25 22 19 18 14 16 13 11 14 12 12
29 23 17 16 16 23 38 43 52 49 48 43 40 38 36 33 35 37 31 27 26 25 23 21 18 17 13 13 12 12 13 13
40 33 29 24 23 24 33 43 53 51 48 48 48 43 38 37 33 33 36 30 27 25 23 20 16 14 13 13 11 13 14 15
48 42 39 33 29 28 31 47 51 59 53 53 48 47 40 39 34 36 35 33 33 28 23 22 18 15 20 13 12 13 11 11
48 45 36 34 33 34 31 39 54 58 58 53 56 43 41 39 36 35 36 36 35 32 23 20 18 16 16 14 10 10 11 14
37 40 34 28 29 35 37 38 52 56 56 52 52 52 47 40 40 37 38 36 34 31 26 23 24 15 15 16 11 13 14 15
36 39 39 31 27 33 41 43 47 55 55 58 48 47 51 50 47 43 38 36 33 32 27 26 23 18 17 16 17 12 16 20
40 42 41 35 28 30 43 45 51 57 61 64 60 54 52 58 53 48 38 35 35 34 25 28 24 21 19 21 15 15 17 22
48 44 44 38 31 30 32 41 45 54 72 63 54 51 49 55 55 48 42 34 37 33 27 25 24 19 22 20 17 13 15 12
51 49 46 43 37 29 28 37 43 54 59 64 62 50 42 44 49 48 44 37 42 33 31 23 27 22 17 19 18 18 14 2
48 50 50 48 43 34 26 29 41 48 64 58 64 57 57 55 61 54 45 39 42 36 33 31 28 23 19 19 19 14 13 5
50 54 52 47 45 41 32 26 34 49 55 64 62 53 55 48 53 58 49 49 43 41 40 34 30 26 19 13 12 10 8 1
32 41 45 47 49 44 39 33 32 49 53 64 65 60 59 63 58 52 59 52 50 47 50 44 34 20 14 15 11 3 6 13
21 29 38 41 42 44 39 38 37 43 55 63 62 60 64 69 67 65 62 59 65 53 46 34 30 27 21 15 12 4 9 18
10 15 22 25 29 32 35 37 40 38 52 64 62 61 61 55 61 67 66 69 63 54 51 45 32 28 22 10 5 12 20 20
7 10 14 18 22 27 30 33 36 36 43 57 67 70 67 56 66 64 80 76 69 72 56 41 38 27 18 9 9 12 13 6
12 14 16 17 19 19 20 33 36 38 40 52 66 73 65 75 73 72 71 74 77 69 56 43 31 22 17 17 11 5 2 4
29 28 26 24 23 22 21 29 39 37 36 52 63 77 75 80 68 66 68 76 72 59 54 41 35 30 24 15 10 8 7 8
46 44 38 32 28 26 22 23 36 39 35 44 59 87 75 74 79 68 70 82 71 59 52 46 39 33 26 18 13 11 11 12
Wind_Direction_500mb
303 301 302 297 250 224 196 206 177 189 185 179 180 182 186 189 191 196 185 191 196 187 200 205 211 225 239 273 267 269 254 243
283 280 282 271 247 227 212 201 192 184 191 180 185 182 186 189 193 200 197 201 202 194 200 199 201 220 227 247 251 243 245 264
274 272 272 261 240 223 224 215 198 190 187 185 186 188 190 193 198 207 202 200 205 205 208 202 203 216 240 236 238 247 260 280
267 264 266 257 243 228 216 221 218 201 194 190 194 190 195 195 199 205 214 206 208 208 209 211 211 217 220 222 239 245 265 271
263 262 263 254 245 235 232 219 214 215 204 201 200 201 197 198 198 206 209 208 212 199 204 204 204 205 210 226 252 259 264 265
260 259 257 244 238 233 238 214 214 216 210 208 204 199 199 197 195 208 209 215 214 208 204 199 209 201 209 225 236 247 254 268
251 244 247 246 242 233 226 213 213 215 211 210 206 204 199 200 203 206 211 213 215 205 192 203 204 204 209 217 229 241 262 275
244 232 240 242 248 241 227 222 215 215 211 212 201 203 203 204 208 210 208 209 208 204 193 196 204 208 213 224 216 243 257 272
241 235 234 243 242 255 236 225 223 214 212 206 203 200 198 203 204 210 207 202 198 193 191 207 210 212 209 222 232 262 265 287
236 234 232 239 248 245 242 231 227 214 213 209 202 201 200 203 202 204 200 197 197 192 188 199 200 207 207 221 241 239 258 289
235 231 231 236 243 248 244 233 224 212 210 210 200 193 195 188 187 195 193 196 194 188 187 193 202 196 207 233 246 245 236 231
235 231 231 234 235 242 243 233 225 222 203 204 206 191 190 192 195 192 188 192 189 191 192 204 201 197 219 248 255 215 203 153
233 229 229 233 239 238 234 230 222 225 213 204 208 198 199 189 194 183 180 183 189 193 195 204 199 207 219 225 222 210 192 164
235 235 231 232 237 240 239 228 219 221 218 209 208 203 192 187 179 173 182 184 189 194 199 196 193 197 190 174 149 133 357 13
245 227 228 231 236 237 235 227 222 215 211 208 200 197 196 193 191 188 190 189 193 193 197 192 182 184 182 162 123 343 5 343
246 252 246 242 238 243 237 223 225 217 209 210 203 200 197 189 195 200 203 186 189 191 198 190 191 187 161 180 344 312 319 314
299 295 275 263 257 255 244 226 225 228 224 214 207 199 196 188 196 200 196 192 193 198 188 195 180 177 196 258 228 243 282 290
305 303 302 298 283 270 257 233 228 226 226 216 211 204 194 194 190 191 195 195 194 188 184 182 187 195 188 189 203 211 198 72
303 306 306 306 294 279 281 243 229 227 226 217 214 199 190 185 184 189 185 205 191 191 185 183 186 177 167 162 169 152 100 71
290 291 293 300 297 279 275 260 225 224 225 221 214 191 179 183 191 191 206 192 181 182 179 169 170 160 158 165 141 115 91 57
Wind_Speed_850mb
18 15 9 7 13 28 42 49 50 45 41 41 37 35 33 32 31 32 26 26 27 26 20 22 20 20 10 14 13 12 14 12
22 19 14 12 14 25 40 43 51 44 43 41 38 36 34 32 32 35 29 28 25 25 22 19 18 14 16 13 11 14 12 12
29 23 17 16 16 23 38 43 52 49 48 43 40 38 36 33 35 37 31 27 26 25 23 21 18 17 13 13 12 12 13 13
40 33 29 24 23 24 33 43 53 51 48 48 48 43 38 37 33 33 36 30 27 25 23 20 16 14 13 13 11 13 14 15
48 42 39 33 29 28 31 47 51 59 53 53 48 47 40 39 34 36 35 33 33 28 23 22 18 15 20 13 12 13 11 11
48 45 36 34 33 34 31 39 54 58 58 53 56 43 41 39 36 35 36 36 35 32 23 20 18 16 16 14 10 10 11 14
37 40 34 28 29 35 37 38 52 56 56 52 52 52 47 40 40 37 38 36 34 31 26 23 24 15 15 16 11 13 14 15
36 39 39 31 27 33 41 43 47 55 55 58 48 47 51 50 47 43 38 36 33 32 27 26 23 18 17 16 17 12 16 20
40 42 41 35 28 30 43 45 51 57 61 64 60 54 52 58 53 48 38 35 35 34 25 28 24 21 19 21 15 15 17 22
48 44 44 38 31 30 32 41 45 54 72 63 54 51 49 55 55 48 42 34 37 33 27 25 24 19 22 20 17 13 15 12
51 49 46 43 37 29 28 37 43 54 59 64 62 50 42 44 49 48 44 37 42 33 31 23 27 22 17 19 18 18 14 2
48 50 50 48 43 34 26 29 41 48 64 58 64 57 57 55 61 54 45 39 42 36 33 31 28 23 19 19 19 14 13 5
50 54 52 47 45 41 32 26 34 49 55 64 62 53 55 48 53 58 49 49 43 41 40 34 30 26 19 13 12 10 8 1
32 41 45 47 49 44 39 33 32 49 53 64 65 60 59 63 58 52 59 52 50 47 50 44 34 20 14 15 11 3 6 13
21 29 38 41 42 44 39 38 37 43 55 63 62 60 64 69 67 65 62 59 65 53 46 34 30 27 21 15 12 4 9 18
10 15 22 25 29 32 35 37 40 38 52 64 62 61 61 55 61 67 66 69 63 54 51 45 32 28 22 10 5 12 20 20
7 10 14 18 22 27 30 33 36 36 43 57 67 70 67 56 66 64 80 76 69 72 56 41 38 27 18 9 9 12 13 6
12 14 16 17 19 19 20 33 36 38 40 52 66 73 65 75 73 72 71 74 77 69 56 43 31 22 17 17 11 5 2 4
29 28 26 24 23 22 21 29 39 37 36 52 63 77 75 80 68 66 68 76 72 59 54 41 35 30 24 15 10 8 7 8
46 44 38 32 28 26 22 23 36 39 35 44 59 87 75 74 79 68 70 82 71 59 52 46 39 33 26 18 13 11 11 12
Wind_Direction_850mb
303 301 302 297 250 224 196 206 177 189 185 179 180 182 186 189 191 196 185 191 196 187 200 205 211 225 239 273 267 269 254 243
283 280 282 271 247 227 212 201 192 184 191 180 185 182 186 189 193 200 197 201 202 194 200 199 201 220 227 247 251 243 245 264
274 272 272 261 240 223 224 215 198 190 187 185 186 188 190 193 198 207 202 200 205 205 208 202 203 216 240 236 238 247 260 280
267 264 266 257 243 228 216 221 218 201 194 190 194 190 195 195 199 205 214 206 208 208 209 211 211 217 220 222 239 245 265 271
263 262 263 254 245 235 232 219 214 215 204 201 200 201 197 198 198 206 209 208 212 199 204 204 204 205 210 226 252 259 264 265
260 259 257 244 238 233 238 214 214 216 210 208 204 199 199 197 195 208 209 215 214 208 204 199 209 201 209 225 236 247 254 268
251 244 247 246 242 233 226 213 213 215 211 210 206 204 199 200 203 206 211 213 215 205 192 203 204 204 209 217 229 241 262 275
244 232 240 242 248 241 227 222 215 215 211 212 201 203 203 204 208 210 208 209 208 204 193 196 204 208 213 224 216 243 257 272
241 235 234 243 242 255 236 225 223 214 212 206 203 200 198 203 204 210 207 202 198 193 191 207 210 212 209 222 232 262 265 287
236 234 232 239 248 245 242 231 227 214 213 209 202 201 200 203 202 204 200 197 197 192 188 199 200 207 207 221 241 239 258 289
235 231 231 236 243 248 244 233 224 212 210 210 200 193 195 188 187 195 193 196 194 188 187 193 202 196 207 233 246 245 236 231
235 231 231 234 235 242 243 233 225 222 203 204 206 191 190 192 195 192 188 192 189 191 192 204 201 197 219 248 255 215 203 153
233 229 229 233 239 238 234 230 222 225 213 204 208 198 199 189 194 183 180 183 189 193 195 204 199 207 219 225 222 210 192 164
235 235 231 232 237 240 239 228 219 221 218 209 208 203 192 187 179 173 182 184 189 194 199 196 193 197 190 174 149 133 357 13
245 227 228 231 236 237 235 227 222 215 211 208 200 197 196 193 191 188 190 189 193 193 197 192 182 184 182 162 123 343 5 343
246 252 246 242 238 243 237 223 225 217 209 210 203 200 197 189 195 200 203 186 189 191 198 190 191 187 161 180 344 312 319 314
299 295 275 263 257 255 244 226 225 228 224 214 207 199 196 188 196 200 196 192 193 198 188 195 180 177 196 258 228 243 282 290
305 303 302 298 283 270 257 233 228 226 226 216 211 204 194 194 190 191 195 195 194 188 184 182 187 195 188 189 203 211 198 72
303 306 306 306 294 279 281 243 229 227 226 217 214 199 190 185 184 189 185 205 191 191 185 183 186 177 167 162 169 152 100 71
290 291 293 300 297 279 275 260 225 224 225 221 214 191 179 183 191 191 206 192 181 182 179 169 170 160 158 165 141 115 91 57